Weather History for Punta Gorda, FL

Change the Weather History Date:

Tuesday, February 19, 2013

  Actual Average Record
Temperature  
Mean Temperature 63 °F -  
Max Temperature 78 °F 75 °F 82 °F (1997)
Min Temperature 48 °F 52 °F 34 °F (2007)
Degree Days  
Heating Degree Days 2    
Growing Degree Days 13 (Base 50)    
Moisture  
Dew Point 55 °F    
Average Humidity 83    
Maximum Humidity 100    
Minimum Humidity 50    
Precipitation  
Precipitation 0.00 in - - ()
Sea Level Pressure  
Sea Level Pressure 30.17 in    
Wind  
Wind Speed 4 mph (South)    
Max Wind Speed 12 mph    
Max Gust Speed 18 mph    
Visibility 7 miles    
Events Fog    
Averages and records for this station are not official NWS values.
T = Trace of Precipitation, MM = Missing Value Source: NWS Daily Summary

Daily Weather History Graph

Daily Weather History Graph

Search for Another Location

Airport:

Trip Planner

Search our weather history database for the weather conditions in past years. The results will help you decide how hot, cold, wet, or windy it might be!

Date:

Astronomy

Feb. 19, 2013 Rise Set
Actual Time 7:00 AM EST 6:23 PM EST
Civil Twilight 6:37 AM EST 6:46 PM EST
Nautical Twilight 6:10 AM EST 7:13 PM EST
Astronomical Twilight 5:43 AM EST 7:40 PM EST
Moon 1:09 PM EST (2/19) 2:15 AM EST (2/19)
Length of Visible Light 12h 09m
Length of Day
11h 22m
Waxing Gibbous, 67% of the Moon is Illuminated
Feb 19
Waxing Gibbous
Feb 25
Full
Mar 4
Last Quarter
Mar 11
New
Mar 19
First Quarter

Hourly Weather History & Observations

Time (EST) Temp. Dew Point Humidity Pressure Visibility Wind Dir Wind Speed Gust Speed Precip Events Conditions
12:53 AM 52.0 °F 48.0 °F 86% 30.23 in 10.0 mi ESE 5.8 mph - N/A   Clear
1:53 AM 48.9 °F 46.0 °F 90% 30.22 in 10.0 mi ESE 3.5 mph - N/A   Clear
2:53 AM 51.1 °F 48.9 °F 92% 30.21 in 10.0 mi NE 4.6 mph - N/A   Overcast
3:53 AM 52.0 °F 48.9 °F 89% 30.20 in 10.0 mi Calm Calm - N/A   Overcast
4:53 AM 50.0 °F 48.0 °F 93% 30.20 in 10.0 mi NE 3.5 mph - N/A   Partly Cloudy
5:53 AM 48.9 °F 46.9 °F 93% 30.21 in 10.0 mi Calm Calm - N/A   Partly Cloudy
6:53 AM 48.9 °F 46.0 °F 90% 30.20 in 10.0 mi Calm Calm - N/A   Clear
7:53 AM 53.1 °F 50.0 °F 89% 30.20 in 10.0 mi Calm Calm - N/A   Clear
8:53 AM 64.0 °F 54.0 °F 70% 30.21 in 10.0 mi SSE 6.9 mph - N/A   Clear
9:53 AM 71.1 °F 55.0 °F 57% 30.21 in 10.0 mi South 11.5 mph - N/A   Clear
10:53 AM 75.0 °F 57.0 °F 53% 30.22 in 10.0 mi South 10.4 mph 18.4 mph N/A   Clear
11:53 AM 75.0 °F 55.9 °F 51% 30.21 in 10.0 mi SW 6.9 mph - N/A   Overcast
1:53 PM 78.1 °F 57.9 °F 50% 30.16 in 10.0 mi WSW 9.2 mph 18.4 mph N/A   Scattered Clouds
2:53 PM 75.9 °F 57.9 °F 54% 30.15 in 10.0 mi SW 11.5 mph - N/A   Partly Cloudy
3:53 PM 77.0 °F 60.1 °F 56% 30.14 in 10.0 mi SW 10.4 mph - N/A   Scattered Clouds
4:53 PM 75.0 °F 60.1 °F 60% 30.13 in 10.0 mi West 9.2 mph - N/A   Partly Cloudy
5:53 PM 72.0 °F 62.1 °F 71% 30.13 in 10.0 mi WSW 5.8 mph - N/A   Clear
8:53 PM 62.1 °F 60.1 °F 93% 30.14 in 10.0 mi SSW 3.5 mph - N/A   Clear
9:38 PM 59.0 °F 57.2 °F 94% 30.15 in 1.8 mi Calm Calm - N/A   Clear
9:51 PM 57.2 °F 57.2 °F 100% 30.15 in 0.5 mi Calm Calm - N/A Fog Fog
9:53 PM 57.9 °F 57.0 °F 97% 30.15 in 0.5 mi Calm Calm - N/A Fog Fog
10:40 PM 59.0 °F 57.2 °F 94% 30.15 in 0.8 mi Calm Calm - N/A   Mist
10:49 PM 57.2 °F 55.4 °F 94% 30.14 in 2.0 mi Calm Calm - N/A   Mostly Cloudy
10:53 PM 57.0 °F 55.9 °F 96% 30.15 in 2.5 mi Calm Calm - N/A   Mostly Cloudy
11:05 PM 57.2 °F 55.4 °F 94% 30.15 in 4.0 mi Calm Calm - N/A   Overcast
11:08 PM 57.2 °F 55.4 °F 94% 30.15 in 1.8 mi Calm Calm - N/A   Overcast
11:12 PM 57.2 °F 55.4 °F 94% 30.15 in 0.8 mi Calm Calm - N/A   Mist
11:39 PM 57.2 °F 55.4 °F 94% 30.13 in 2.5 mi Calm Calm - N/A   Overcast
11:46 PM 57.2 °F 55.4 °F 94% 30.13 in 10.0 mi South 3.5 mph - N/A   Overcast
11:53 PM 57.0 °F 55.9 °F 96% 30.13 in 1.8 mi Calm Calm - N/A   Overcast